Simultaneous Nadir Overpasses (SNOs) Predictions

Prediction of SNOs between GOES-17 and AQUA Satellite Orbit:

Table of predicted SNOs for the next 14.0 days since TLE Epoch: 9/24/2022
Index Date Time (GOES-17) GOES-17 Lat,Lon AQUA Lat,Lon Distance(km) Time Diff (sec)
1 09/24/2022 10:50:33 0.04,-137.33 0.14,-137.78 50.88 80
2 09/26/2022 10:40:29 0.04,-137.33 -0.55,-134.68 301.66 80
3 09/26/2022 22:59:04 -0.04,-137.33 -0.58,-139.83 284.51 80
4 09/28/2022 22:48:59 -0.04,-137.32 0.07,-136.72 67.26 80
5 09/30/2022 22:36:14 -0.04,-137.30 0.74,-133.62 417.97 80
6 10/01/2022 10:54:41 0.04,-137.29 0.35,-138.74 164.77 80
7 10/03/2022 10:44:36 0.03,-137.26 -0.33,-135.64 184.71 80
8 10/03/2022 23:03:11 -0.03,-137.25 -0.77,-140.79 402.28 80
9 10/05/2022 22:50:25 -0.02,-137.21 -0.12,-137.68 53.20 80
10 10/07/2022 22:40:19 -0.02,-137.18 0.54,-134.58 296.04 80
